contact:dominique.lefevre@mio.osupytheas.fr, maurice.libes@osupytheas.fr, didier.mallarino@osupytheas.fr
Project:EMSO http://www.emso-fr.org/EMSO-France
Depth: 2436.0 m
Title:EMSO Ligure Ouest : Data MII capteur AQUADOPP
Date,Latitude,Longitude,X_East,Y_North,Z_Up,Amplitude_X,Amplitude_Y,Amplitude_Z,Batterie,SoundSpeed,Heading,Pitch,Roll,Pressure,TIS,Speed,Direction
, degrees North, degrees East, m.s-1, m.s-1,m.s-1, 1, 1, 1, Volt, m.s-1, degree, degree, degree, dbar, degree_C, m.s-1, degree
2021-07-05T00:04:03,42.805,6.029,-0.005,0.002,0.034,105.0,107.0,103.0,13.3,1505.2,325.6,-0.8,1.9,2470.425,13.28,0.005,291.8
2021-07-05T00:07:03,42.805,6.029,0.012,0.022,0.027,106.0,108.0,104.0,13.4,1505.2,328.5,-0.8,1.8,2470.446,13.28,0.025,28.6
2021-07-05T00:10:03,42.805,6.029,0.022,0.0,0.0,107.0,106.0,104.0,13.4,1505.2,328.7,-0.8,1.8,2470.485,13.28,0.022,90.0
2021-07-05T00:13:03,42.805,6.029,-0.008,0.04,-0.006,106.0,107.0,104.0,13.4,1505.2,326.0,-0.7,1.8,2470.464,13.28,0.04,348.7
2021-07-05T00:16:03,42.805,6.029,-0.02,0.023,0.031,107.0,107.0,104.0,13.3,1505.2,326.6,-0.8,1.8,2470.447,13.28,0.03,319.0
2021-07-05T00:19:03,42.805,6.029,-0.018,0.042,0.027,107.0,106.0,104.0,13.4,1505.2,330.3,-0.8,1.9,2470.404,13.28,0.045,336.8
2021-07-05T00:22:03,42.805,6.029,-0.029,0.031,-0.004,106.0,106.0,103.0,13.4,1505.2,326.6,-0.7,1.8,2470.425,13.28,0.042,316.9
2021-07-05T00:25:03,42.805,6.029,0.003,0.043,0.012,106.0,108.0,105.0,13.4,1505.2,327.4,-0.8,1.8,2470.46,13.28,0.043,4.0
2021-07-05T00:28:03,42.805,6.029,0.002,0.018,0.026,107.0,107.0,104.0,13.4,1505.2,327.6,-0.7,1.8,2470.467,13.28,0.018,6.3
2021-07-05T00:31:03,42.805,6.029,0.0,0.038,0.033,105.0,107.0,104.0,13.3,1505.2,328.8,-0.7,1.8,2470.44,13.29,0.038,0.0
2021-07-05T00:34:03,42.805,6.029,0.016,0.013,0.032,105.0,108.0,104.0,13.3,1505.2,330.2,-0.8,1.8,2470.446,13.28,0.02,50.9
2021-07-05T00:37:03,42.805,6.029,-0.002,0.023,-0.019,106.0,107.0,104.0,13.4,1505.2,325.3,-0.7,1.8,2470.466,13.29,0.023,355.0
2021-07-05T00:40:03,42.805,6.029,-0.005,0.022,0.011,106.0,107.0,104.0,13.4,1505.2,327.5,-0.7,1.8,2470.498,13.28,0.022,347.2
2021-07-05T00:43:03,42.805,6.029,0.016,0.021,0.015,108.0,108.0,103.0,13.4,1505.2,324.8,-0.8,1.8,2470.473,13.29,0.026,37.3
2021-07-05T00:46:03,42.805,6.029,0.013,0.015,-0.005,107.0,107.0,104.0,13.4,1505.2,326.5,-0.8,1.8,2470.444,13.29,0.019,40.9
2021-07-05T00:49:03,42.805,6.029,-0.001,0.022,0.013,106.0,107.0,104.0,13.4,1505.2,325.9,-0.8,1.8,2470.457,13.29,0.022,357.4
2021-07-05T00:52:03,42.805,6.029,-0.015,0.031,-0.001,106.0,106.0,104.0,13.4,1505.2,330.1,-0.8,1.8,2470.429,13.29,0.034,334.2
2021-07-05T00:55:03,42.805,6.029,0.019,0.011,0.028,107.0,107.0,104.0,13.4,1505.2,328.2,-0.8,1.9,2470.453,13.29,0.021,59.9
2021-07-05T00:58:03,42.805,6.029,0.014,0.018,-0.004,107.0,106.0,104.0,13.4,1505.2,329.8,-0.7,1.8,2470.443,13.28,0.022,37.9
2021-07-05T01:04:03,42.805,6.029,0.009,0.025,0.032,108.0,107.0,104.0,13.4,1505.2,328.9,-0.7,1.9,2470.529,13.28,0.026,19.8
2021-07-05T01:07:03,42.805,6.029,-0.005,0.035,0.01,107.0,107.0,103.0,13.4,1505.2,330.4,-0.8,1.8,2470.426,13.28,0.035,351.9
2021-07-05T01:10:03,42.805,6.029,0.003,0.013,0.006,106.0,107.0,103.0,13.4,1505.2,327.6,-0.7,1.8,2470.468,13.28,0.013,13.0
2021-07-05T01:13:03,42.805,6.029,0.016,0.016,-0.011,106.0,107.0,102.0,13.4,1505.2,329.6,-0.7,1.8,2470.467,13.28,0.022,45.0
2021-07-05T01:16:03,42.805,6.029,0.01,0.029,0.0,106.0,107.0,102.0,13.4,1505.2,327.1,-0.7,1.9,2470.523,13.28,0.03,19.0
2021-07-05T01:19:03,42.805,6.029,0.019,-0.002,0.01,107.0,106.0,103.0,13.4,1505.2,327.1,-0.7,1.8,2470.494,13.28,0.019,96.0
2021-07-05T01:22:03,42.805,6.029,0.015,0.026,0.03,106.0,107.0,102.0,13.4,1505.2,324.8,-0.7,1.9,2470.481,13.28,0.03,30.0
2021-07-05T01:25:03,42.805,6.029,0.005,0.035,0.019,106.0,105.0,103.0,13.3,1505.2,325.0,-0.8,1.8,2470.466,13.28,0.035,8.1
2021-07-05T01:28:03,42.805,6.029,-0.006,0.013,-0.006,107.0,105.0,104.0,13.4,1505.2,325.5,-0.8,1.9,2470.448,13.29,0.014,335.2
2021-07-05T01:31:03,42.805,6.029,0.002,0.021,0.026,106.0,107.0,102.0,13.4,1505.2,325.7,-0.8,1.8,2470.456,13.29,0.021,5.4
2021-07-05T01:34:03,42.805,6.029,-0.005,0.016,-0.021,106.0,107.0,103.0,13.4,1505.2,326.5,-0.7,1.8,2470.486,13.29,0.016,342.6
2021-07-05T01:37:03,42.805,6.029,0.006,0.024,0.051,106.0,107.0,101.0,13.3,1505.2,325.3,-0.7,1.8,2470.454,13.29,0.024,14.0
2021-07-05T01:40:03,42.805,6.029,0.025,0.021,0.005,104.0,107.0,103.0,13.4,1505.2,325.1,-0.8,1.8,2470.45,13.29,0.032,50.0
2021-07-05T01:43:03,42.805,6.029,0.017,0.003,0.009,106.0,107.0,102.0,13.3,1505.2,328.4,-0.8,1.8,2470.485,13.28,0.017,80.0
2021-07-05T01:46:03,42.805,6.029,-0.011,0.014,-0.006,106.0,106.0,103.0,13.4,1505.2,330.2,-0.8,1.8,2470.465,13.29,0.017,321.8
2021-07-05T01:49:03,42.805,6.029,-0.008,0.021,-0.011,106.0,106.0,103.0,13.3,1505.2,327.2,-0.8,1.8,2470.486,13.29,0.022,339.1
2021-07-05T01:52:03,42.805,6.029,0.03,0.016,-0.011,106.0,107.0,104.0,13.3,1505.2,326.3,-0.8,1.8,2470.474,13.29,0.034,61.9
2021-07-05T01:55:03,42.805,6.029,0.022,0.006,-0.01,104.0,107.0,102.0,13.3,1505.2,326.4,-0.7,1.8,2470.468,13.29,0.022,74.7
2021-07-05T01:58:03,42.805,6.029,-0.014,0.02,0.007,105.0,107.0,103.0,13.4,1505.2,328.5,-0.8,1.8,2470.482,13.28,0.024,325.0
2021-07-05T02:04:03,42.805,6.029,0.001,-0.002,0.028,105.0,106.0,103.0,13.3,1505.2,327.3,-0.8,1.8,2470.514,13.28,0.002,153.4
2021-07-05T02:07:03,42.805,6.029,0.015,0.018,0.001,105.0,105.0,103.0,13.3,1505.2,329.7,-0.8,1.8,2470.481,13.28,0.023,39.8
2021-07-05T02:10:03,42.805,6.029,-0.013,0.009,-0.005,103.0,105.0,103.0,13.4,1505.2,327.6,-0.7,1.8,2470.509,13.28,0.015,304.7
2021-07-05T02:13:03,42.805,6.029,-0.003,0.019,-0.006,105.0,107.0,102.0,13.4,1505.2,326.8,-0.7,1.8,2470.497,13.28,0.019,351.0
2021-07-05T02:16:03,42.805,6.029,0.01,0.014,0.018,106.0,106.0,102.0,13.4,1505.2,328.9,-0.7,1.8,2470.47,13.28,0.017,35.5
2021-07-05T02:19:03,42.805,6.029,0.0,0.022,0.022,104.0,105.0,102.0,13.4,1505.2,328.5,-0.7,1.8,2470.462,13.28,0.022,0.0
2021-07-05T02:22:03,42.805,6.029,0.014,-0.001,-0.009,105.0,105.0,103.0,13.4,1505.2,326.3,-0.7,1.8,2470.498,13.28,0.014,94.1
2021-07-05T02:25:03,42.805,6.029,-0.008,-0.002,0.01,106.0,105.0,102.0,13.3,1505.2,325.4,-0.7,1.8,2470.433,13.28,0.008,256.0
2021-07-05T02:28:03,42.805,6.029,-0.004,0.032,-0.005,104.0,105.0,103.0,13.3,1505.2,326.6,-0.8,1.8,2470.463,13.28,0.032,352.9
2021-07-05T02:31:03,42.805,6.029,0.01,0.023,0.028,104.0,106.0,102.0,13.4,1505.2,326.5,-0.8,1.8,2470.477,13.28,0.025,23.5
2021-07-05T02:34:03,42.805,6.029,0.002,0.015,-0.02,105.0,106.0,102.0,13.3,1505.2,326.0,-0.7,1.8,2470.509,13.28,0.015,7.6
2021-07-05T02:37:03,42.805,6.029,0.001,0.025,0.012,105.0,106.0,103.0,13.4,1505.2,327.1,-0.7,1.8,2470.469,13.29,0.025,2.3
2021-07-05T02:40:03,42.805,6.029,-0.011,0.003,0.023,104.0,105.0,103.0,13.4,1505.2,327.9,-0.7,1.8,2470.472,13.29,0.011,285.3
2021-07-05T02:43:03,42.805,6.029,0.009,0.013,-0.005,106.0,105.0,101.0,13.4,1505.2,327.9,-0.8,1.8,2470.482,13.29,0.015,34.7
2021-07-05T02:46:03,42.805,6.029,0.009,0.009,0.013,104.0,105.0,102.0,13.4,1505.2,329.5,-0.8,1.8,2470.508,13.28,0.012,45.0
2021-07-05T02:49:03,42.805,6.029,0.006,0.023,0.025,105.0,106.0,101.0,13.3,1505.2,328.2,-0.8,1.8,2470.452,13.29,0.023,14.6
2021-07-05T02:52:03,42.805,6.029,0.004,0.008,-0.003,105.0,104.0,102.0,13.4,1505.2,329.7,-0.7,1.8,2470.477,13.28,0.008,26.6
2021-07-05T02:55:03,42.805,6.029,0.002,0.016,0.001,105.0,105.0,102.0,13.3,1505.2,326.7,-0.8,1.8,2470.443,13.28,0.016,7.1
2021-07-05T02:58:03,42.805,6.029,0.001,0.015,-0.007,105.0,104.0,101.0,13.3,1505.2,328.4,-0.8,1.8,2470.477,13.28,0.015,3.8
2021-07-05T03:04:03,42.805,6.029,-0.002,0.031,0.008,103.0,105.0,101.0,13.4,1505.2,326.2,-0.7,1.8,2470.492,13.28,0.031,356.3
2021-07-05T03:07:03,42.805,6.029,0.015,0.008,0.014,103.0,105.0,102.0,13.4,1505.2,326.4,-0.8,1.8,2470.489,13.28,0.017,61.9
2021-07-05T03:10:03,42.805,6.029,-0.008,0.0,-0.021,105.0,104.0,102.0,13.4,1505.2,324.6,-0.7,1.8,2470.507,13.28,0.008,270.0
2021-07-05T03:13:03,42.805,6.029,0.023,0.025,0.025,104.0,104.0,102.0,13.4,1505.2,327.0,-0.8,1.8,2470.521,13.28,0.033,42.6
2021-07-05T03:16:03,42.805,6.029,0.014,0.013,0.013,103.0,105.0,103.0,13.4,1505.2,327.7,-0.8,1.8,2470.487,13.28,0.019,47.1
2021-07-05T03:19:03,42.805,6.029,-0.003,0.007,0.003,105.0,106.0,102.0,13.3,1505.2,327.8,-0.8,1.8,2470.522,13.28,0.007,336.8
2021-07-05T03:22:03,42.805,6.029,-0.005,0.018,-0.01,104.0,105.0,102.0,13.4,1505.2,326.1,-0.8,1.8,2470.484,13.28,0.018,344.5
2021-07-05T03:25:03,42.805,6.029,0.003,0.019,0.029,105.0,106.0,101.0,13.4,1505.2,324.6,-0.8,1.8,2470.5,13.28,0.019,9.0
2021-07-05T03:28:03,42.805,6.029,0.002,0.015,0.002,104.0,105.0,103.0,13.4,1505.2,324.8,-0.7,1.8,2470.488,13.28,0.015,7.6
2021-07-05T03:31:03,42.805,6.029,-0.013,0.019,0.001,104.0,105.0,102.0,13.3,1505.2,328.1,-0.7,1.8,2470.533,13.28,0.023,325.6
2021-07-05T03:34:03,42.805,6.029,0.018,-0.011,0.024,103.0,106.0,101.0,13.4,1505.2,329.6,-0.7,1.8,2470.532,13.28,0.021,121.4
2021-07-05T03:37:03,42.805,6.029,-0.005,0.009,0.017,104.0,106.0,102.0,13.3,1505.2,329.4,-0.7,1.8,2470.494,13.28,0.01,330.9
2021-07-05T03:40:03,42.805,6.029,-0.003,0.021,0.0,105.0,104.0,102.0,13.3,1505.2,327.9,-0.8,1.8,2470.474,13.28,0.021,351.9
2021-07-05T03:43:03,42.805,6.029,-0.005,0.009,0.0,104.0,105.0,103.0,13.4,1505.2,325.3,-0.8,1.9,2470.492,13.28,0.01,330.9
2021-07-05T03:46:03,42.805,6.029,0.0,0.004,0.018,105.0,105.0,101.0,13.3,1505.2,325.7,-0.8,1.8,2470.5,13.28,0.004,0.0
2021-07-05T03:49:03,42.805,6.029,-0.009,0.011,0.006,105.0,105.0,102.0,13.4,1505.2,330.6,-0.8,1.8,2470.507,13.28,0.014,320.7
2021-07-05T03:52:03,42.805,6.029,0.017,0.016,0.028,104.0,106.0,103.0,13.4,1505.2,328.7,-0.7,1.8,2470.489,13.28,0.023,46.7
2021-07-05T03:55:03,42.805,6.029,0.015,0.006,-0.003,105.0,106.0,103.0,13.4,1505.2,325.5,-0.7,1.8,2470.518,13.28,0.016,68.2
2021-07-05T03:58:03,42.805,6.029,-0.003,-0.012,-0.001,104.0,106.0,102.0,13.4,1505.2,326.8,-0.7,1.8,2470.484,13.28,0.012,194.0
2021-07-05T04:04:03,42.805,6.029,-0.008,0.032,0.023,105.0,104.0,103.0,13.4,1505.2,327.6,-0.8,1.8,2470.543,13.28,0.032,346.0
2021-07-05T04:07:03,42.805,6.029,0.006,0.008,0.01,104.0,106.0,103.0,13.4,1505.2,330.5,-0.8,1.9,2470.495,13.28,0.01,36.9
2021-07-05T04:10:03,42.805,6.029,0.011,-0.009,0.001,104.0,105.0,103.0,13.4,1505.2,329.7,-0.7,1.8,2470.513,13.28,0.014,129.3
2021-07-05T04:13:03,42.805,6.029,-0.017,0.017,0.023,104.0,105.0,101.0,13.3,1505.2,329.2,-0.8,1.8,2470.49,13.28,0.024,315.0
2021-07-05T04:16:03,42.805,6.029,0.02,-0.006,0.009,103.0,105.0,102.0,13.4,1505.2,324.8,-0.7,1.8,2470.494,13.28,0.02,106.7
2021-07-05T04:19:03,42.805,6.029,0.008,0.01,0.018,102.0,105.0,102.0,13.4,1505.2,328.4,-0.7,1.8,2470.515,13.28,0.012,38.7
2021-07-05T04:22:03,42.805,6.029,0.013,0.022,0.017,103.0,106.0,102.0,13.4,1505.2,326.0,-0.7,1.8,2470.502,13.28,0.025,30.6
2021-07-05T04:25:03,42.805,6.029,0.0,-0.001,-0.008,101.0,105.0,101.0,13.3,1505.2,330.2,-0.8,1.8,2470.548,13.28,0.001,180.0
2021-07-05T04:28:03,42.805,6.029,0.004,0.017,0.028,104.0,105.0,102.0,13.4,1505.2,326.9,-0.8,1.9,2470.493,13.28,0.017,13.2
2021-07-05T04:31:03,42.805,6.029,-0.002,0.012,-0.001,103.0,107.0,103.0,13.4,1505.2,327.8,-0.7,1.8,2470.49,13.28,0.012,350.5
2021-07-05T04:34:03,42.805,6.029,-0.005,0.0,0.014,104.0,104.0,101.0,13.3,1505.2,328.4,-0.8,1.8,2470.492,13.28,0.005,270.0
2021-07-05T04:37:03,42.805,6.029,-0.001,0.003,0.002,103.0,105.0,102.0,13.4,1505.2,329.9,-0.7,1.8,2470.521,13.28,0.003,341.6
2021-07-05T04:40:03,42.805,6.029,0.016,0.015,0.021,104.0,104.0,103.0,13.4,1505.2,329.4,-0.8,1.8,2470.449,13.28,0.021,46.9
2021-07-05T04:43:03,42.805,6.029,0.001,-0.009,0.008,104.0,104.0,102.0,13.3,1505.2,329.7,-0.8,1.8,2470.478,13.29,0.009,173.7
2021-07-05T04:46:03,42.805,6.029,0.005,-0.006,-0.01,104.0,105.0,102.0,13.4,1505.2,325.9,-0.8,1.8,2470.475,13.29,0.007,140.2
2021-07-05T04:49:03,42.805,6.029,-0.024,0.02,-0.012,103.0,104.0,103.0,13.3,1505.2,328.2,-0.7,1.9,2470.472,13.29,0.031,309.8
2021-07-05T04:52:03,42.805,6.029,0.006,-0.008,-0.018,103.0,105.0,102.0,13.3,1505.2,328.2,-0.8,1.8,2470.488,13.29,0.01,143.1
2021-07-05T04:55:03,42.805,6.029,0.01,-0.007,-0.019,103.0,106.0,102.0,13.4,1505.2,324.7,-0.7,1.8,2470.48,13.29,0.012,125.0
2021-07-05T04:58:03,42.805,6.029,0.021,-0.006,0.014,104.0,104.0,102.0,13.4,1505.2,329.1,-0.8,1.8,2470.481,13.29,0.021,105.9
2021-07-05T05:04:03,42.805,6.029,0.009,0.001,0.0,104.0,104.0,101.0,13.4,1505.2,326.4,-0.8,1.8,2470.485,13.28,0.009,83.7
2021-07-05T05:07:03,42.805,6.029,0.0,-0.021,0.007,103.0,104.0,102.0,13.4,1505.2,326.0,-0.7,1.8,2470.506,13.28,0.021,180.0
2021-07-05T05:10:03,42.805,6.029,0.016,0.01,0.0,104.0,105.0,103.0,13.4,1505.2,330.0,-0.7,1.8,2470.495,13.28,0.018,58.0
2021-07-05T05:13:03,42.805,6.029,0.001,0.015,-0.01,103.0,103.0,102.0,13.4,1505.2,326.8,-0.7,1.8,2470.482,13.28,0.015,3.8
2021-07-05T05:16:03,42.805,6.029,-0.004,0.013,0.005,104.0,104.0,102.0,13.4,1505.2,327.0,-0.8,1.8,2470.539,13.28,0.013,342.9
2021-07-05T05:19:03,42.805,6.029,0.004,0.004,-0.015,103.0,105.0,101.0,13.4,1505.2,326.3,-0.7,1.8,2470.492,13.29,0.005,45.0
2021-07-05T05:22:03,42.805,6.029,0.002,0.012,0.016,103.0,104.0,102.0,13.3,1505.2,326.4,-0.8,1.8,2470.494,13.28,0.012,9.5
2021-07-05T05:25:03,42.805,6.029,0.017,0.005,0.045,102.0,106.0,101.0,13.3,1505.2,325.1,-0.7,1.8,2470.546,13.28,0.017,73.6
2021-07-05T05:28:03,42.805,6.029,0.011,-0.007,0.018,103.0,104.0,102.0,13.4,1505.2,324.6,-0.7,1.8,2470.482,13.29,0.013,122.5
2021-07-05T05:31:03,42.805,6.029,0.006,-0.017,0.006,102.0,104.0,100.0,13.4,1505.2,329.7,-0.7,1.8,2470.499,13.29,0.018,160.6
2021-07-05T05:34:03,42.805,6.029,0.022,0.002,0.034,104.0,103.0,101.0,13.3,1505.2,327.3,-0.7,1.8,2470.506,13.29,0.022,84.8
2021-07-05T05:37:03,42.805,6.029,0.001,0.006,-0.028,102.0,104.0,102.0,13.4,1505.2,325.7,-0.8,1.8,2470.432,13.28,0.006,9.5
2021-07-05T05:40:03,42.805,6.029,0.017,-0.003,0.015,102.0,105.0,101.0,13.4,1505.2,326.8,-0.7,1.8,2470.498,13.28,0.017,100.0
2021-07-05T05:43:03,42.805,6.029,-0.015,-0.006,0.015,103.0,103.0,101.0,13.4,1505.2,324.5,-0.7,1.8,2470.454,13.29,0.016,248.2
2021-07-05T05:46:03,42.805,6.029,0.004,0.007,0.007,104.0,104.0,100.0,13.4,1505.2,327.7,-0.7,1.8,2470.489,13.29,0.008,29.7
2021-07-05T05:49:03,42.805,6.029,-0.01,-0.015,0.0,103.0,105.0,101.0,13.4,1505.2,325.1,-0.8,1.8,2470.459,13.29,0.018,213.7
2021-07-05T05:52:03,42.805,6.029,-0.003,0.007,0.017,103.0,104.0,102.0,13.4,1505.2,325.3,-0.7,1.9,2470.492,13.29,0.007,336.8
2021-07-05T05:55:03,42.805,6.029,0.019,0.0,0.018,103.0,104.0,101.0,13.4,1505.2,327.2,-0.7,1.8,2470.484,13.29,0.019,90.0
2021-07-05T05:58:03,42.805,6.029,0.009,0.013,-0.006,105.0,104.0,101.0,13.3,1505.2,328.0,-0.7,1.9,2470.465,13.29,0.015,34.7
2021-07-05T06:04:03,42.805,6.029,0.014,0.004,0.019,104.0,104.0,103.0,13.4,1505.2,324.9,-0.8,1.8,2470.515,13.28,0.014,74.1
2021-07-05T06:07:03,42.805,6.029,-0.007,0.003,0.017,102.0,104.0,101.0,13.4,1505.2,330.2,-0.7,1.9,2470.497,13.28,0.007,293.2
2021-07-05T06:10:03,42.805,6.029,-0.015,-0.006,0.006,103.0,105.0,101.0,13.4,1505.2,327.7,-0.8,1.8,2470.477,13.29,0.016,248.2
2021-07-05T06:13:03,42.805,6.029,0.0,-0.001,0.047,103.0,104.0,101.0,13.4,1505.2,324.7,-0.7,1.8,2470.441,13.29,0.001,180.0
2021-07-05T06:16:03,42.805,6.029,0.009,0.004,0.0,103.0,104.0,102.0,13.4,1505.2,328.7,-0.7,1.8,2470.465,13.29,0.009,66.0
2021-07-05T06:19:03,42.805,6.029,-0.01,-0.008,0.022,103.0,104.0,101.0,13.3,1505.2,328.9,-0.7,1.8,2470.46,13.29,0.012,231.3
2021-07-05T06:22:03,42.805,6.029,0.007,0.013,0.016,103.0,105.0,104.0,13.4,1505.2,329.7,-0.7,1.8,2470.496,13.29,0.014,28.3
2021-07-05T06:25:03,42.805,6.029,-0.003,-0.016,0.007,104.0,104.0,102.0,13.4,1505.2,325.7,-0.8,1.8,2470.486,13.29,0.016,190.6
2021-07-05T06:28:03,42.805,6.029,0.004,0.002,0.018,102.0,104.0,100.0,13.4,1505.2,326.6,-0.8,1.8,2470.519,13.29,0.004,63.4
2021-07-05T06:31:03,42.805,6.029,0.009,-0.006,0.012,102.0,104.0,101.0,13.4,1505.2,328.6,-0.7,1.8,2470.443,13.29,0.01,123.7
2021-07-05T06:34:03,42.805,6.029,-0.035,0.014,-0.015,101.0,104.0,101.0,13.3,1505.2,327.6,-0.8,1.8,2470.477,13.29,0.037,291.8
2021-07-05T06:37:03,42.805,6.029,-0.018,0.013,0.004,104.0,103.0,101.0,13.4,1505.2,326.6,-0.7,1.8,2470.459,13.29,0.022,305.8
2021-07-05T06:40:03,42.805,6.029,0.012,-0.009,0.0,103.0,103.0,100.0,13.4,1505.2,328.4,-0.7,1.9,2470.438,13.29,0.015,126.9
2021-07-05T06:43:03,42.805,6.029,0.006,-0.017,-0.014,102.0,103.0,100.0,13.4,1505.2,328.1,-0.8,1.8,2470.403,13.29,0.018,160.6
2021-07-05T06:46:03,42.805,6.029,-0.014,0.019,0.036,101.0,103.0,102.0,13.4,1505.2,326.1,-0.8,1.8,2470.47,13.29,0.023,323.6
2021-07-05T06:49:03,42.805,6.029,0.007,-0.011,0.008,102.0,102.0,102.0,13.3,1505.2,328.5,-0.7,1.8,2470.445,13.29,0.013,147.5
2021-07-05T06:52:03,42.805,6.029,-0.006,0.009,-0.003,101.0,103.0,102.0,13.3,1505.2,326.7,-0.7,1.8,2470.482,13.29,0.01,326.3
2021-07-05T06:55:03,42.805,6.029,0.003,0.003,0.017,102.0,103.0,101.0,13.4,1505.2,325.7,-0.8,1.8,2470.43,13.29,0.004,45.0
2021-07-05T06:58:03,42.805,6.029,0.015,-0.005,0.01,101.0,103.0,101.0,13.4,1505.2,328.7,-0.7,1.8,2470.427,13.29,0.015,108.4
2021-07-05T07:04:03,42.805,6.029,-0.003,-0.014,0.012,102.0,102.0,100.0,13.3,1505.2,325.5,-0.8,1.8,2470.444,13.28,0.014,192.1
2021-07-05T07:07:03,42.805,6.029,0.004,0.015,0.023,101.0,101.0,102.0,13.4,1505.2,330.1,-0.7,1.8,2470.442,13.28,0.015,14.9
2021-07-05T07:10:03,42.805,6.029,-0.003,0.002,0.024,102.0,103.0,101.0,13.4,1505.2,327.7,-0.8,1.8,2470.486,13.29,0.003,303.7
2021-07-05T07:13:03,42.805,6.029,0.029,-0.005,0.017,102.0,101.0,101.0,13.4,1505.2,329.5,-0.8,1.8,2470.456,13.29,0.029,99.8
2021-07-05T07:16:03,42.805,6.029,0.007,-0.016,-0.005,102.0,102.0,101.0,13.4,1505.2,326.5,-0.8,1.8,2470.428,13.29,0.017,156.4
2021-07-05T07:19:03,42.805,6.029,-0.005,-0.009,-0.013,104.0,104.0,100.0,13.4,1505.2,326.0,-0.7,1.9,2470.464,13.29,0.01,209.1
2021-07-05T07:22:03,42.805,6.029,0.002,0.007,0.013,106.0,103.0,102.0,13.4,1505.2,328.9,-0.8,1.8,2470.43,13.29,0.007,15.9
2021-07-05T07:25:03,42.805,6.029,0.0,0.001,0.018,103.0,104.0,102.0,13.4,1505.2,328.0,-0.7,1.8,2470.47,13.29,0.001,0.0
2021-07-05T07:28:03,42.805,6.029,0.01,0.001,-0.001,103.0,104.0,102.0,13.4,1505.2,328.0,-0.8,1.8,2470.449,13.29,0.01,84.3
2021-07-05T07:31:03,42.805,6.029,0.0,-0.003,-0.019,103.0,104.0,102.0,13.4,1505.2,325.5,-0.7,1.8,2470.436,13.29,0.003,180.0
2021-07-05T07:34:03,42.805,6.029,-0.004,0.006,-0.028,103.0,104.0,101.0,13.4,1505.2,326.0,-0.8,1.9,2470.454,13.29,0.007,326.3
2021-07-05T07:37:03,42.805,6.029,-0.008,0.009,-0.004,104.0,103.0,100.0,13.3,1505.2,328.5,-0.8,1.8,2470.41,13.29,0.012,318.4
2021-07-05T07:40:03,42.805,6.029,-0.005,0.015,-0.001,104.0,104.0,101.0,13.4,1505.2,325.2,-0.8,1.8,2470.419,13.29,0.015,341.6
2021-07-05T07:43:03,42.805,6.029,-0.011,0.005,0.006,104.0,103.0,102.0,13.3,1505.2,329.8,-0.7,1.8,2470.424,13.29,0.012,294.4
2021-07-05T07:46:03,42.805,6.029,-0.011,-0.008,-0.01,105.0,103.0,103.0,13.3,1505.2,326.7,-0.7,1.8,2470.385,13.29,0.013,234.0
2021-07-05T07:49:03,42.805,6.029,0.008,0.018,0.015,106.0,102.0,102.0,13.3,1505.2,324.7,-0.7,1.8,2470.391,13.29,0.019,24.0
2021-07-05T07:52:03,42.805,6.029,-0.01,-0.011,0.008,103.0,105.0,102.0,13.3,1505.2,326.8,-0.7,1.8,2470.401,13.29,0.014,222.3
2021-07-05T07:55:03,42.805,6.029,-0.031,0.004,0.012,104.0,105.0,102.0,13.4,1505.2,328.2,-0.8,1.8,2470.407,13.29,0.031,277.3
2021-07-05T07:58:03,42.805,6.029,-0.013,-0.007,-0.02,104.0,104.0,102.0,13.4,1505.2,326.3,-0.7,1.9,2470.396,13.29,0.014,241.7
2021-07-05T08:04:03,42.805,6.029,-0.024,0.0,0.025,104.0,104.0,102.0,13.4,1505.2,325.8,-0.7,1.8,2470.453,13.29,0.024,270.0
2021-07-05T08:07:03,42.805,6.029,-0.024,0.015,-0.004,105.0,103.0,103.0,13.4,1505.2,329.0,-0.7,1.9,2470.443,13.29,0.028,302.0
2021-07-05T08:10:03,42.805,6.029,-0.007,0.012,0.022,104.0,103.0,102.0,13.4,1505.2,325.6,-0.7,1.8,2470.436,13.29,0.013,329.7
2021-07-05T08:13:03,42.805,6.029,-0.01,0.009,0.007,104.0,104.0,101.0,13.4,1505.2,330.1,-0.8,1.8,2470.417,13.29,0.013,312.0
2021-07-05T08:16:03,42.805,6.029,-0.005,0.007,-0.017,103.0,105.0,103.0,13.4,1505.2,329.7,-0.8,1.8,2470.441,13.29,0.008,324.5
2021-07-05T08:19:03,42.805,6.029,-0.007,-0.001,-0.005,105.0,105.0,101.0,13.4,1505.2,326.6,-0.8,1.8,2470.465,13.29,0.007,261.9
2021-07-05T08:22:03,42.805,6.029,-0.009,0.015,-0.01,106.0,105.0,101.0,13.3,1505.2,326.8,-0.7,1.8,2470.422,13.29,0.017,329.0
2021-07-05T08:25:03,42.805,6.029,0.006,-0.017,-0.004,103.0,105.0,102.0,13.4,1505.2,328.6,-0.7,1.9,2470.389,13.29,0.018,160.6
2021-07-05T08:28:03,42.805,6.029,0.0,-0.008,-0.011,103.0,104.0,101.0,13.4,1505.2,327.8,-0.7,1.8,2470.427,13.29,0.008,180.0
2021-07-05T08:31:03,42.805,6.029,-0.001,0.011,-0.014,105.0,105.0,102.0,13.4,1505.2,327.4,-0.7,1.8,2470.403,13.29,0.011,354.8
2021-07-05T08:34:03,42.805,6.029,0.005,0.006,0.003,105.0,105.0,101.0,13.4,1505.2,328.8,-0.8,1.8,2470.419,13.29,0.007,39.8
2021-07-05T08:37:03,42.805,6.029,-0.012,0.002,0.014,105.0,106.0,101.0,13.3,1505.2,328.4,-0.8,1.8,2470.412,13.29,0.012,279.5
2021-07-05T08:40:03,42.805,6.029,-0.024,0.009,-0.006,105.0,104.0,103.0,13.3,1505.2,325.4,-0.7,1.8,2470.406,13.29,0.025,290.6
2021-07-05T08:43:03,42.805,6.029,-0.013,0.021,-0.012,105.0,106.0,101.0,13.4,1505.2,324.4,-0.7,1.8,2470.384,13.29,0.024,328.2
2021-07-05T08:46:03,42.805,6.029,-0.013,-0.003,-0.033,104.0,105.0,102.0,13.3,1505.2,329.1,-0.8,1.8,2470.385,13.29,0.013,257.0
2021-07-05T08:49:03,42.805,6.029,-0.026,0.006,0.033,104.0,104.0,102.0,13.4,1505.2,326.8,-0.8,1.8,2470.368,13.29,0.026,283.0
2021-07-05T08:52:03,42.805,6.029,-0.005,-0.009,-0.007,103.0,105.0,102.0,13.4,1505.2,325.2,-0.8,1.8,2470.39,13.29,0.01,209.1
2021-07-05T08:55:03,42.805,6.029,0.002,0.002,-0.021,106.0,104.0,103.0,13.4,1505.2,327.8,-0.8,1.8,2470.41,13.29,0.002,45.0
2021-07-05T08:58:03,42.805,6.029,-0.002,-0.013,-0.031,106.0,103.0,103.0,13.4,1505.2,327.4,-0.8,1.8,2470.416,13.29,0.013,188.7
2021-07-05T09:04:03,42.805,6.029,0.009,-0.012,0.027,105.0,106.0,102.0,13.3,1505.2,329.6,-0.8,1.8,2470.428,13.29,0.015,143.1
2021-07-05T09:07:03,42.805,6.029,-0.015,0.021,-0.004,105.0,103.0,102.0,13.4,1505.2,328.8,-0.8,1.9,2470.389,13.29,0.025,324.5
2021-07-05T09:10:03,42.805,6.029,-0.015,-0.011,-0.013,105.0,104.0,103.0,13.4,1505.2,329.8,-0.8,1.8,2470.382,13.29,0.018,233.7
2021-07-05T09:13:03,42.805,6.029,-0.015,-0.009,0.008,105.0,104.0,101.0,13.4,1505.2,325.0,-0.8,1.8,2470.407,13.29,0.017,239.0
2021-07-05T09:16:03,42.805,6.029,-0.025,-0.003,-0.001,104.0,105.0,103.0,13.4,1505.2,328.9,-0.8,1.8,2470.402,13.29,0.025,263.2
2021-07-05T09:19:03,42.805,6.029,-0.009,0.002,0.001,103.0,106.0,102.0,13.4,1505.2,326.0,-0.8,1.9,2470.412,13.29,0.009,282.5
2021-07-05T09:22:03,42.805,6.029,-0.01,-0.004,0.004,105.0,103.0,102.0,13.4,1505.2,325.8,-0.8,1.8,2470.373,13.29,0.01,248.2
2021-07-05T09:25:03,42.805,6.029,-0.007,0.008,-0.008,107.0,104.0,103.0,13.4,1505.2,327.2,-0.8,1.8,2470.376,13.29,0.01,318.8
2021-07-05T09:28:03,42.805,6.029,-0.017,-0.002,0.016,104.0,104.0,101.0,13.4,1505.2,328.5,-0.7,1.9,2470.384,13.29,0.017,263.3
2021-07-05T09:31:03,42.805,6.029,-0.025,0.019,0.023,105.0,104.0,105.0,13.4,1505.2,327.8,-0.8,1.8,2470.36,13.29,0.031,307.2
2021-07-05T09:34:03,42.805,6.029,-0.016,-0.003,0.019,104.0,104.0,103.0,13.3,1505.2,329.5,-0.7,1.8,2470.375,13.29,0.016,259.4
2021-07-05T09:37:03,42.805,6.029,0.006,0.019,0.02,106.0,105.0,103.0,13.4,1505.2,329.9,-0.8,1.8,2470.378,13.29,0.019,17.5
2021-07-05T09:40:03,42.805,6.029,-0.005,0.012,-0.005,106.0,105.0,103.0,13.3,1505.2,327.8,-0.8,1.8,2470.357,13.29,0.013,337.4
2021-07-05T09:43:03,42.805,6.029,-0.013,0.003,0.003,104.0,104.0,103.0,13.4,1505.2,326.8,-0.8,1.8,2470.336,13.29,0.013,283.0
2021-07-05T09:46:03,42.805,6.029,0.007,-0.007,-0.022,105.0,104.0,102.0,13.3,1505.2,325.4,-0.8,1.8,2470.419,13.29,0.009,135.0
2021-07-05T09:49:03,42.805,6.029,-0.005,0.0,0.021,104.0,105.0,102.0,13.3,1505.2,326.5,-0.8,1.8,2470.358,13.29,0.005,270.0
2021-07-05T09:52:03,42.805,6.029,0.002,0.002,0.023,103.0,104.0,103.0,13.3,1505.2,326.0,-0.8,1.8,2470.34,13.29,0.002,45.0
2021-07-05T09:55:03,42.805,6.029,0.012,0.012,-0.016,105.0,103.0,102.0,13.4,1505.2,328.5,-0.8,1.8,2470.341,13.29,0.016,45.0
2021-07-05T09:58:03,42.805,6.029,0.004,0.007,-0.028,104.0,104.0,102.0,13.4,1505.2,326.7,-0.8,1.8,2470.334,13.29,0.008,29.7
2021-07-05T10:04:03,42.805,6.029,-0.019,0.009,-0.016,104.0,104.0,102.0,13.4,1505.2,328.3,-0.8,1.8,2470.404,13.28,0.021,295.3